Location: Rounton
(54.4000°N, 1.3500°W)
Time: 08:09:39
(UTC+00:00)

Vanguard 1 Rocket - Pass Details

Date: 30 November 2021
Orbit: 651 x 4224 km, 34.3° (Epoch: 19 January)

Event Time Altitude Azimuth Distance (km) Brightness Sun altitude
Rises 03:36:53 0° 221° (SW) 5,232 - -37.2°
Reaches altitude 10° 03:40:14 10° 212° (SSW) 4,658 - -36.8°
Exits shadow 03:44:40 23° 195° (SSW) 4,197 10.5 -36.1°
Maximum altitude 03:52:16 33° 155° (SSE) 4,326 10.8 -35.1°
Drops below altitude 10° 04:10:59 10° 102° (ESE) 7,222 12.7 -32.4°
Sets 04:17:58 0° 95° (E) 8,441 13.4 -31.4°
